Date String (YYYY-MM-DD hh:mm:ss) UTC,Instrument flags,absolute air pressure of the measurement (hPa),sample flow rate (lpm),inlet stack bypass flow (lpm),air temperature of the measurement (°C),ambient temperature measured by the external sensor (°C),aerosol sample conditioner tube jacket temperature (°C),OPC LED temperature (°C),internal box temperature (°C),relative humidity of the measurement (%),span deviation,mass concentration of particles derived from Lorenz-Mie calculation of OPC scattering (μg/m³),mass concentration of particles derived from Lorenz-Mie calculation of OPC scattering (μg/m³),mass concentration of particles derived from Lorenz-Mie calculation of OPC scattering (μg/m³)
DateTimeUTC,F1_M11,P_M11,Q1_M11,Q2_M11,T1_M11,T2_M11,T3_M11,T4_M11,T5_M11,U1_M11,ZSPAN_M11,X0_M11,X2_M11,X1_M11
2023-12-23 09:00:00,SystemResetWarning,0823.5,5.00,000.00,023.9,022.9,000.0,032.2,025.3,12.4,0000.0,0003.04,0002.30,0002.01
2023-12-23 09:01:00,SystemResetWarning,0823.5,5.01,000.00,023.9,022.9,000.0,032.2,025.3,12.4,0000.0,0003.29,0002.42,0002.08
2023-12-23 09:02:00,SystemResetWarning,0823.4,5.00,000.00,023.9,022.9,000.0,032.2,025.3,12.3,0000.0,0003.99,0002.55,0002.16
2023-12-23 09:03:00,SystemResetWarning,0823.5,5.01,000.00,023.9,022.9,000.0,032.2,025.3,12.3,0000.0,0004.07,0002.61,0002.23
2023-12-23 09:04:00,SystemResetWarning,0823.5,4.98,000.00,023.9,022.9,000.0,032.2,025.3,12.3,0000.0,0004.13,0002.67,0002.28
2023-12-23 09:05:00,SystemResetWarning,0823.5,4.99,000.00,023.9,022.9,000.0,032.2,025.3,12.3,0000.0,0004.73,0002.70,0002.34
2023-12-23 09:06:00,SystemResetWarning,0823.5,5.01,000.00,023.9,022.9,000.0,032.2,025.3,12.3,0000.0,0005.33,0002.72,0002.39
2023-12-23 09:07:00,SystemResetWarning,0823.4,5.01,000.00,023.9,022.9,000.0,032.2,025.3,12.3,0000.0,0005.87,0002.85,0002.48
2023-12-23 09:08:00,SystemResetWarning,0823.5,5.01,000.00,023.9,022.9,000.0,032.2,025.4,12.3,0000.0,0006.99,0003.00,0002.56
2023-12-23 09:09:00,SystemResetWarning,0823.5,5.00,000.00,023.9,022.9,000.0,032.2,025.4,12.3,0000.0,0007.22,0003.09,0002.63
2023-12-23 09:10:00,SystemResetWarning,0823.5,4.99,000.00,023.9,022.9,000.0,032.2,025.4,12.3,0000.0,0007.39,0003.15,0002.72
2023-12-23 09:11:00,SystemResetWarning,0823.5,4.99,000.00,023.9,022.9,000.0,032.2,025.4,12.4,0000.0,0007.43,0003.21,0002.83
2023-12-23 09:12:00,SystemResetWarning,0823.4,5.00,000.00,023.9,023.0,000.0,032.2,025.4,12.4,0000.0,0007.42,0003.25,0002.91
2023-12-23 09:13:00,SystemResetWarning,0823.5,5.01,000.00,023.9,023.0,000.0,032.2,025.4,12.4,0000.0,0007.19,0003.29,0003.02
2023-12-23 09:14:00,SystemResetWarning,0823.5,5.01,000.00,023.9,023.0,000.0,032.2,025.3,12.4,0000.0,0007.41,0003.41,0003.12
2023-12-23 09:15:00,SystemResetWarning,0823.5,4.99,000.00,023.9,023.0,000.0,032.2,025.3,12.4,0000.0,0007.61,0003.50,0003.19
2023-12-23 09:16:00,SystemResetWarning,0823.5,4.99,000.00,023.9,023.0,000.0,032.2,025.4,12.4,0000.0,0007.68,0003.59,0003.24
2023-12-23 09:17:00,SystemResetWarning,0823.5,5.00,000.00,024.0,023.0,000.0,032.2,025.4,12.4,0000.0,0007.37,0003.66,0003.29
2023-12-23 09:18:00,SystemResetWarning,0823.4,5.00,000.00,024.0,023.0,000.0,032.2,025.4,12.4,0000.0,0007.56,0003.72,0003.34
2023-12-23 09:19:00,SystemResetWarning,0823.4,5.01,000.00,024.0,023.0,000.0,032.2,025.4,12.4,0000.0,0006.95,0003.81,0003.42
2023-12-23 09:20:00,SystemResetWarning,0823.4,5.01,000.00,024.0,023.0,000.0,032.2,025.4,12.4,0000.0,0007.21,0003.88,0003.50
2023-12-23 09:21:00,SystemResetWarning,0823.4,4.99,000.00,024.0,023.1,000.0,032.2,025.4,12.4,0000.0,0007.41,0003.98,0003.58
2023-12-23 09:22:00,SystemResetWarning,0823.3,4.99,000.00,024.0,023.1,000.0,032.2,025.4,12.4,0000.0,0007.84,0004.06,0003.64
2023-12-23 09:23:00,SystemResetWarning,0823.3,5.01,000.00,024.0,023.1,000.0,032.3,025.4,12.4,0000.0,0007.98,0004.12,0003.70
2023-12-23 09:24:00,SystemResetWarning,0823.3,5.01,000.00,024.0,023.1,000.0,032.2,025.4,12.4,0000.0,0008.05,0004.19,0003.75
2023-12-23 09:25:00,SystemResetWarning,0823.3,4.99,000.00,024.0,023.1,000.0,032.3,025.4,12.4,0000.0,0007.95,0004.17,0003.78
2023-12-23 09:26:00,SystemResetWarning,0823.2,5.00,000.00,024.0,023.1,000.0,032.3,025.4,12.4,0000.0,0008.07,0004.22,0003.81
2023-12-23 09:27:00,SystemResetWarning,0823.1,5.00,000.00,024.0,023.1,000.0,032.3,025.4,12.4,0000.0,0007.86,0004.23,0003.84
2023-12-23 09:28:00,SystemResetWarning,0823.1,5.00,000.00,024.0,023.1,000.0,032.3,025.5,12.5,0000.0,0007.96,0004.27,0003.88
2023-12-23 09:29:00,SystemResetWarning,0823.1,5.00,000.00,024.0,023.1,000.0,032.3,025.4,12.5,0000.0,0007.98,0004.30,0003.92
2023-12-23 09:30:00,SystemResetWarning,0823.1,5.01,000.00,024.0,023.1,000.0,032.3,025.4,12.5,0000.0,0008.61,0004.30,0003.94
2023-12-23 09:31:00,SystemResetWarning,0823.1,5.01,000.00,024.0,023.1,000.0,032.3,025.5,12.5,0000.0,0009.15,0004.28,0003.93
2023-12-23 09:32:00,SystemResetWarning,0823.1,5.01,000.00,024.0,023.1,000.0,032.3,025.5,12.5,0000.0,0009.18,0004.23,0003.89
2023-12-23 09:33:00,SystemResetWarning,0823.1,5.01,000.00,024.0,023.1,000.0,032.3,025.5,12.5,0000.0,0009.18,0004.21,0003.87
2023-12-23 09:34:00,SystemResetWarning,0823.1,5.00,000.00,024.0,023.1,000.0,032.3,025.5,12.5,0000.0,0009.07,0004.19,0003.85
2023-12-23 09:35:00,SystemResetWarning,0823.1,4.99,000.00,024.0,023.2,000.0,032.3,025.4,12.5,0000.0,0009.05,0004.15,0003.82
2023-12-23 09:36:00,SystemResetWarning,0823.0,4.99,000.00,024.0,023.2,000.0,032.3,025.5,12.5,0000.0,0009.16,0004.19,0003.82
2023-12-23 09:37:00,SystemResetWarning,0823.0,4.99,000.00,024.0,023.2,000.0,032.3,025.5,12.5,0000.0,0009.09,0004.15,0003.81
2023-12-23 09:38:00,SystemResetWarning,0822.9,5.01,000.00,024.0,023.2,000.0,032.3,025.5,12.5,0000.0,0008.89,0004.09,0003.79
2023-12-23 09:39:00,SystemResetWarning,0822.9,5.01,000.00,024.0,023.2,000.0,032.3,025.5,12.5,0000.0,0008.87,0004.07,0003.77
2023-12-23 09:40:00,SystemResetWarning,0823.0,5.01,000.00,024.0,023.2,000.0,032.3,025.5,12.5,0000.0,0008.90,0004.08,0003.74
2023-12-23 09:41:00,SystemResetWarning,0822.9,5.00,000.00,024.0,023.2,000.0,032.3,025.5,12.4,0000.0,0008.48,0004.05,0003.70
2023-12-23 09:42:00,SystemResetWarning,0822.9,4.99,000.00,024.0,023.2,000.0,032.3,025.5,12.4,0000.0,0007.54,0004.05,0003.69
2023-12-23 09:43:00,SystemResetWarning,0823.0,4.99,000.00,024.1,023.2,000.0,032.3,025.5,12.4,0000.0,0007.43,0004.07,0003.72
2023-12-23 09:44:00,SystemResetWarning,0823.0,5.00,000.00,024.1,023.2,000.0,032.3,025.5,12.4,0000.0,0006.63,0004.07,0003.73
2023-12-23 09:45:00,SystemResetWarning,0823.0,5.00,000.00,024.1,023.2,000.0,032.3,025.5,12.4,0000.0,0006.61,0004.07,0003.74
2023-12-23 09:46:00,SystemResetWarning,0823.3,5.00,000.00,024.1,023.2,000.0,032.3,025.5,12.4,0000.0,0006.61,0004.08,0003.75
2023-12-23 09:47:00,SystemResetWarning,0823.3,5.00,000.00,024.1,023.2,000.0,032.3,025.5,12.2,0000.0,0006.54,0004.06,0003.73
2023-12-23 09:48:00,SystemResetWarning,0823.2,5.00,000.00,024.1,023.2,000.0,032.3,025.5,12.1,0000.0,0006.56,0004.09,0003.74
2023-12-23 09:49:00,SystemResetWarning,0822.7,5.01,000.00,024.1,023.2,000.0,032.3,025.5,12.0,0000.0,0006.66,0004.12,0003.75
2023-12-23 09:50:00,SystemResetWarning,0822.7,5.00,000.00,024.1,023.2,000.0,032.3,025.5,12.0,0000.0,0006.88,0004.16,0003.77
2023-12-23 09:51:00,SystemResetWarning,0822.8,5.00,000.00,024.1,023.2,000.0,032.3,025.5,12.1,0000.0,0006.78,0004.17,0003.81
2023-12-23 09:52:00,SystemResetWarning,0822.8,5.00,000.00,024.1,023.2,000.0,032.3,025.5,12.2,0000.0,0007.04,0004.18,0003.85
2023-12-23 09:53:00,SystemResetWarning,0822.8,5.00,000.00,024.1,023.2,000.0,032.3,025.5,12.4,0000.0,0007.52,0004.22,0003.87
2023-12-23 09:54:00,SystemResetWarning,0822.7,5.00,000.00,024.1,023.2,000.0,032.3,025.5,12.4,0000.0,0007.69,0004.20,0003.85
2023-12-23 09:55:00,SystemResetWarning,0822.7,4.99,000.00,024.1,023.2,000.0,032.4,025.5,12.4,0000.0,0007.73,0004.18,0003.83
2023-12-23 09:56:00,SystemResetWarning,0822.7,4.99,000.00,024.1,023.2,000.0,032.4,025.5,12.4,0000.0,0007.76,0004.14,0003.78
2023-12-23 09:57:00,SystemResetWarning,0822.8,5.01,000.00,024.1,023.2,000.0,032.4,025.5,12.4,0000.0,0007.92,0004.08,0003.73
2023-12-23 09:58:00,SystemResetWarning,0822.8,5.01,000.00,024.1,023.2,000.0,032.4,025.5,12.5,0000.0,0007.86,0004.05,0003.72
2023-12-23 09:59:00,SystemResetWarning,0822.8,5.01,000.00,024.1,023.2,000.0,032.4,025.5,12.5,0000.0,0008.34,0004.05,0003.75
